Time,TemperatureF,DewpointF,PressureIn,WindDirection,WindDirectionDegrees,WindSpeedMPH,WindSpeedGustMPH,Humidity,HourlyPrecipIn,Conditions,Clouds,dailyrainin,SoftwareType,DateUTC
2013-07-10 00:01:00,79.7,74.2,30.16,SSW,211,11.7,17.0,83,0.00, ,,-99.99,VWS V12.07,2013-07-10 04:01:00,
2013-07-10 00:02:00,80.0,74.5,30.17,SSW,211,13.5,17.0,83,0.00, ,,-99.99,VWS V12.07,2013-07-10 04:02:00,
2013-07-10 00:05:00,79.5,73.8,30.16,SSW,209,14.7,17.0,83,0.00, ,,-99.99,VWS V12.07,2013-07-10 04:05:00,
2013-07-10 00:10:00,79.7,74.0,30.16,SW,215,15.4,17.0,83,0.00, ,,-99.99,VWS V12.07,2013-07-10 04:10:00,
2013-07-10 00:11:00,80.0,74.4,30.16,SW,216,10.9,17.0,83,0.00, ,,-99.99,VWS V12.07,2013-07-10 04:11:00,
2013-07-10 00:16:00,80.0,74.6,30.16,SW,228,11.3,15.5,84,0.00, ,,-99.99,VWS V12.07,2013-07-10 04:16:00,
2013-07-10 00:21:00,79.9,74.6,30.16,SW,220,8.8,17.1,84,0.00, ,,-99.99,VWS V12.07,2013-07-10 04:21:00,
2013-07-10 00:26:00,79.7,74.3,30.17,SSW,208,14.5,17.1,84,0.00, ,,-99.99,VWS V12.07,2013-07-10 04:26:00,
2013-07-10 00:27:00,79.8,74.7,30.17,SW,222,15.2,18.6,84,0.00, ,,-99.99,VWS V12.07,2013-07-10 04:27:00,
2013-07-10 00:32:00,79.3,73.9,30.17,SW,219,14.3,18.6,84,0.00, ,,-99.99,VWS V12.07,2013-07-10 04:32:00,
2013-07-10 00:37:00,80.0,74.4,30.16,SW,220,14.7,16.7,83,0.00, ,,-99.99,VWS V12.07,2013-07-10 04:37:00,
2013-07-10 00:42:00,79.4,73.7,30.16,SW,220,12.8,19.0,83,0.00, ,,-99.99,VWS V12.07,2013-07-10 04:42:00,
2013-07-10 00:47:00,79.9,74.7,30.16,SW,223,10.6,19.0,84,0.00, ,,-99.99,VWS V12.07,2013-07-10 04:47:00,
2013-07-10 00:52:00,80.0,74.2,30.15,SSW,211,14.2,19.0,82,0.00, ,,-99.99,VWS V12.07,2013-07-10 04:52:00,
2013-07-10 00:57:00,79.8,74.1,30.15,SSW,213,13.9,15.2,83,0.00, ,,-99.99,VWS V12.07,2013-07-10 04:57:00,
2013-07-10 01:02:00,79.7,74.1,30.15,SW,222,11.0,15.2,83,0.00, ,,-99.99,VWS V12.07,2013-07-10 05:02:00,
2013-07-10 01:07:00,80.1,74.6,30.15,SSW,209,12.5,16.0,83,0.00, ,,-99.99,VWS V12.07,2013-07-10 05:07:00,
2013-07-10 01:12:00,79.7,74.5,30.15,SSW,212,12.0,16.5,84,0.00, ,,-99.99,VWS V12.07,2013-07-10 05:12:00,
2013-07-10 01:17:00,79.8,74.4,30.15,SW,215,12.9,16.5,84,0.00, ,,-99.99,VWS V12.07,2013-07-10 05:17:00,
2013-07-10 01:22:00,79.8,74.4,30.15,SW,225,10.9,16.5,84,0.00, ,,-99.99,VWS V12.07,2013-07-10 05:22:00,
2013-07-10 01:27:00,79.4,74.0,30.15,SSW,201,12.7,19.4,84,0.00, ,,-99.99,VWS V12.07,2013-07-10 05:27:00,
2013-07-10 01:32:00,80.1,74.8,30.15,SSW,211,11.5,19.4,84,0.00, ,,-99.99,VWS V12.07,2013-07-10 05:32:00,
2013-07-10 01:37:00,79.8,74.3,30.15,SSW,213,12.3,16.3,83,0.00, ,,-99.99,VWS V12.07,2013-07-10 05:37:00,
2013-07-10 01:42:00,79.4,73.9,30.14,SSW,195,6.3,16.5,83,0.00, ,,-99.99,VWS V12.07,2013-07-10 05:42:00,
2013-07-10 01:47:00,79.5,74.0,30.15,SSW,205,9.7,16.5,83,0.00, ,,-99.99,VWS V12.07,2013-07-10 05:47:00,
2013-07-10 01:52:00,80.0,74.4,30.14,SSW,204,9.8,16.5,83,0.00, ,,-99.99,VWS V12.07,2013-07-10 05:52:00,
2013-07-10 01:57:00,80.0,74.4,30.14,SW,219,10.4,15.7,83,0.00, ,,-99.99,VWS V12.07,2013-07-10 05:57:00,
2013-07-10 02:02:00,79.5,74.0,30.14,SW,216,11.9,15.7,83,0.00, ,,-99.99,VWS V12.07,2013-07-10 06:02:00,
2013-07-10 02:07:00,79.8,74.0,30.14,SSW,208,15.2,16.6,82,0.00, ,,-99.99,VWS V12.07,2013-07-10 06:07:00,
2013-07-10 02:12:00,80.0,74.4,30.14,SW,216,12.7,16.6,83,0.00, ,,-99.99,VWS V12.07,2013-07-10 06:12:00,
2013-07-10 02:17:00,79.3,73.6,30.13,SSW,208,7.1,15.0,83,0.00, ,,-99.99,VWS V12.07,2013-07-10 06:17:00,
2013-07-10 02:22:00,79.7,74.2,30.13,SSW,197,9.6,16.2,83,0.00, ,,-99.99,VWS V12.07,2013-07-10 06:22:00,
2013-07-10 02:27:00,79.7,74.0,30.13,SSW,211,16.1,16.2,83,0.00, ,,-99.99,VWS V12.07,2013-07-10 06:27:00,
2013-07-10 02:32:00,80.0,75.0,30.13,SSW,202,11.2,16.2,85,0.00, ,,-99.99,VWS V12.07,2013-07-10 06:32:00,
2013-07-10 02:37:00,80.0,74.7,30.13,SSW,213,10.5,13.0,84,0.00, ,,-99.99,VWS V12.07,2013-07-10 06:37:00,
2013-07-10 02:42:00,79.4,74.4,30.13,SW,220,11.7,13.9,85,0.00, ,,-99.99,VWS V12.07,2013-07-10 06:42:00,
2013-07-10 02:47:00,79.3,74.4,30.13,SW,220,10.5,14.3,85,0.00, ,,-99.99,VWS V12.07,2013-07-10 06:47:00,
2013-07-10 02:52:00,79.7,74.8,30.13,SSW,213,8.9,15.4,85,0.00, ,,-99.99,VWS V12.07,2013-07-10 06:52:00,
2013-07-10 02:57:00,79.4,74.6,30.13,SW,225,12.7,14.7,85,0.00, ,,-99.99,VWS V12.07,2013-07-10 06:57:00,
2013-07-10 03:02:00,79.1,74.4,30.12,SW,228,9.0,14.7,86,0.00, ,,-99.99,VWS V12.07,2013-07-10 07:02:00,
2013-07-10 03:07:00,79.2,74.6,30.13,SSW,209,14.7,14.7,86,0.00, ,,-99.99,VWS V12.07,2013-07-10 07:07:00,
2013-07-10 03:12:00,79.2,74.1,30.12,SW,222,14.1,16.7,84,0.00, ,,-99.99,VWS V12.07,2013-07-10 07:12:00,
2013-07-10 03:17:00,79.2,74.1,30.12,South,191,15.3,17.1,84,0.00, ,,-99.99,VWS V12.07,2013-07-10 07:17:00,
2013-07-10 03:22:00,79.7,74.6,30.12,SW,220,12.5,17.5,84,0.00, ,,-99.99,VWS V12.07,2013-07-10 07:22:00,
2013-07-10 03:27:00,79.2,73.7,30.12,SW,235,11.1,17.5,83,0.00, ,,-99.99,VWS V12.07,2013-07-10 07:27:00,
2013-07-10 03:32:00,79.7,74.6,30.12,SSW,198,10.4,17.5,84,0.00, ,,-99.99,VWS V12.07,2013-07-10 07:32:00,
2013-07-10 03:37:00,79.0,73.8,30.13,SW,226,11.6,15.2,84,0.00, ,,-99.99,VWS V12.07,2013-07-10 07:37:00,
2013-07-10 03:42:00,79.7,74.6,30.12,SW,222,11.6,15.2,84,0.00, ,,-99.99,VWS V12.07,2013-07-10 07:42:00,
2013-07-10 03:47:00,79.2,74.0,30.12,SW,230,11.2,15.6,84,0.00, ,,-99.99,VWS V12.07,2013-07-10 07:47:00,
2013-07-10 03:52:00,79.3,74.3,30.12,SW,222,11.7,15.6,85,0.00, ,,-99.99,VWS V12.07,2013-07-10 07:52:00,
2013-07-10 03:57:00,80.1,75.0,30.12,SW,215,12.7,14.9,84,0.00, ,,-99.99,VWS V12.07,2013-07-10 07:57:00,
2013-07-10 04:02:00,80.0,75.1,30.12,SW,226,12.5,14.9,85,0.00, ,,-99.99,VWS V12.07,2013-07-10 08:02:00,
2013-07-10 04:07:00,79.7,74.8,30.12,SW,235,14.3,15.8,85,0.00, ,,-99.99,VWS V12.07,2013-07-10 08:07:00,
2013-07-10 04:12:00,79.3,74.5,30.12,SW,219,11.6,15.8,85,0.00, ,,-99.99,VWS V12.07,2013-07-10 08:12:00,
2013-07-10 04:17:00,79.8,75.1,30.12,SW,218,10.4,13.4,86,0.00, ,,-99.99,VWS V12.07,2013-07-10 08:17:00,
2013-07-10 04:22:00,79.5,74.7,30.12,SSW,201,13.8,14.2,85,0.00, ,,-99.99,VWS V12.07,2013-07-10 08:22:00,
2013-07-10 04:27:00,79.2,74.6,30.12,SW,220,11.6,14.2,86,0.00, ,,-99.99,VWS V12.07,2013-07-10 08:27:00,
2013-07-10 04:32:00,79.8,75.1,30.12,SSW,212,10.6,14.2,86,0.00, ,,-99.99,VWS V12.07,2013-07-10 08:32:00,
2013-07-10 04:37:00,79.1,74.4,30.12,SW,219,10.0,14.7,86,0.00, ,,-99.99,VWS V12.07,2013-07-10 08:37:00,
2013-07-10 04:42:00,79.4,74.7,30.12,SW,215,9.8,14.7,86,0.00, ,,-99.99,VWS V12.07,2013-07-10 08:42:00,
2013-07-10 04:47:00,79.3,74.6,30.12,SW,216,9.5,16.1,86,0.00, ,,-99.99,VWS V12.07,2013-07-10 08:47:00,
2013-07-10 04:52:00,79.1,74.3,30.12,SW,228,9.5,16.1,85,0.00, ,,-99.99,VWS V12.07,2013-07-10 08:52:00,
2013-07-10 04:57:00,79.2,74.2,30.12,SW,215,10.7,15.0,85,0.00, ,,-99.99,VWS V12.07,2013-07-10 08:57:00,
2013-07-10 05:02:00,79.2,73.8,30.12,SW,218,13.4,15.7,84,0.00, ,,-99.99,VWS V12.07,2013-07-10 09:02:00,
2013-07-10 05:07:00,79.1,73.9,30.12,SW,218,13.2,16.1,84,0.00, ,,-99.99,VWS V12.07,2013-07-10 09:07:00,
2013-07-10 05:12:00,79.1,73.9,30.12,SW,223,10.4,17.2,84,0.00, ,,-99.99,VWS V12.07,2013-07-10 09:12:00,
2013-07-10 05:17:00,79.3,73.8,30.12,SW,222,11.7,15.1,83,0.00, ,,-99.99,VWS V12.07,2013-07-10 09:17:00,
2013-07-10 05:23:00,79.0,73.5,30.12,SSW,197,12.0,15.1,83,0.00, ,,-99.99,VWS V12.07,2013-07-10 09:23:00,
2013-07-10 05:28:00,79.2,73.7,30.12,SSW,212,11.3,15.1,83,0.00, ,,-99.99,VWS V12.07,2013-07-10 09:28:00,
2013-07-10 05:33:00,79.2,73.9,30.12,SSW,213,10.0,15.1,84,0.00, ,,-99.99,VWS V12.07,2013-07-10 09:33:00,
2013-07-10 05:38:00,79.4,74.2,30.12,SSW,206,9.6,13.0,84,0.00, ,,-99.99,VWS V12.07,2013-07-10 09:38:00,
2013-07-10 05:43:00,79.5,74.3,30.12,SW,218,12.2,13.9,84,0.00, ,,-99.99,VWS V12.07,2013-07-10 09:43:00,
2013-07-10 05:48:00,79.4,74.2,30.12,SSW,213,10.7,14.9,84,0.00, ,,-99.99,VWS V12.07,2013-07-10 09:48:00,
2013-07-10 05:53:00,79.4,74.5,30.12,SW,222,8.7,14.9,85,0.00, ,,-99.99,VWS V12.07,2013-07-10 09:53:00,
2013-07-10 05:58:00,79.5,74.7,30.12,WSW,254,7.5,13.2,85,0.00, ,,-99.99,VWS V12.07,2013-07-10 09:58:00,
2013-07-10 06:03:00,79.0,74.0,30.12,SSW,213,11.2,15.1,85,0.00, ,,-99.99,VWS V12.07,2013-07-10 10:03:00,
2013-07-10 06:08:00,79.5,74.7,30.12,SW,223,12.3,15.1,85,0.00, ,,-99.99,VWS V12.07,2013-07-10 10:08:00,
2013-07-10 06:13:00,79.4,74.5,30.12,SW,216,11.1,15.1,85,0.00, ,,-99.99,VWS V12.07,2013-07-10 10:13:00,
2013-07-10 06:18:00,79.5,74.8,30.12,SW,226,9.5,13.3,86,0.00, ,,-99.99,VWS V12.07,2013-07-10 10:18:00,
2013-07-10 06:23:00,79.1,74.3,30.12,SW,215,9.9,13.3,85,0.00, ,,-99.99,VWS V12.07,2013-07-10 10:23:00,
2013-07-10 06:28:00,79.1,74.0,30.12,SW,226,12.1,15.0,84,0.00, ,,-99.99,VWS V12.07,2013-07-10 10:28:00,
2013-07-10 06:33:00,79.5,74.4,30.12,SW,228,10.9,15.0,84,0.00, ,,-99.99,VWS V12.07,2013-07-10 10:33:00,
2013-07-10 06:38:00,79.2,74.0,30.13,SSW,197,11.6,14.9,84,0.00, ,,-99.99,VWS V12.07,2013-07-10 10:38:00,
2013-07-10 06:43:00,79.2,73.7,30.13,SW,219,13.0,14.9,83,0.00, ,,-99.99,VWS V12.07,2013-07-10 10:43:00,
2013-07-10 06:48:00,79.3,73.8,30.13,SW,220,12.6,15.8,83,0.00, ,,-99.99,VWS V12.07,2013-07-10 10:48:00,
2013-07-10 06:53:00,79.4,73.9,30.13,South,187,12.1,15.8,83,0.00, ,,-99.99,VWS V12.07,2013-07-10 10:53:00,
2013-07-10 06:58:00,79.4,74.2,30.12,SSW,194,12.6,15.9,84,0.00, ,,-99.99,VWS V12.07,2013-07-10 10:58:00,
2013-07-10 07:03:00,79.4,74.2,30.12,SW,219,14.8,15.9,84,0.00, ,,-99.99,VWS V12.07,2013-07-10 11:03:00,
2013-07-10 07:08:00,79.3,74.1,30.13,SW,230,15.3,16.4,84,0.00, ,,-99.99,VWS V12.07,2013-07-10 11:08:00,
2013-07-10 07:13:00,79.7,74.7,30.12,SW,235,14.2,16.4,85,0.00, ,,-99.99,VWS V12.07,2013-07-10 11:13:00,
2013-07-10 07:18:00,79.3,73.8,30.12,SW,220,14.0,15.6,83,0.00, ,,-99.99,VWS V12.07,2013-07-10 11:18:00,
2013-07-10 07:23:00,79.9,74.3,30.12,SW,232,12.9,15.6,83,0.00, ,,-99.99,VWS V12.07,2013-07-10 11:23:00,
2013-07-10 07:28:00,79.7,73.4,30.12,SW,229,12.2,15.7,81,0.00, ,,-99.99,VWS V12.07,2013-07-10 11:28:00,
2013-07-10 07:33:00,79.8,73.8,30.13,SW,230,12.5,16.1,82,0.00, ,,-99.99,VWS V12.07,2013-07-10 11:33:00,
2013-07-10 07:38:00,79.7,73.7,30.12,SSW,206,12.8,15.3,82,0.00, ,,-99.99,VWS V12.07,2013-07-10 11:38:00,
2013-07-10 07:43:00,80.0,74.2,30.13,SSW,212,11.7,15.3,82,0.00, ,,-99.99,VWS V12.07,2013-07-10 11:43:00,
2013-07-10 07:48:00,80.2,74.0,30.13,SW,233,10.9,15.3,81,0.00, ,,-99.99,VWS V12.07,2013-07-10 11:48:00,
2013-07-10 07:53:00,80.2,74.3,30.13,SW,219,11.2,15.3,82,0.00, ,,-99.99,VWS V12.07,2013-07-10 11:53:00,
2013-07-10 07:58:00,80.2,73.8,30.13,SW,229,13.0,13.9,81,0.00, ,,-99.99,VWS V12.07,2013-07-10 11:58:00,
2013-07-10 08:03:00,79.4,72.8,30.13,SW,222,12.9,15.4,80,0.00, ,,-99.99,VWS V12.07,2013-07-10 12:03:00,
2013-07-10 08:08:00,80.0,73.5,30.13,SW,216,12.4,15.4,80,0.00, ,,-99.99,VWS V12.07,2013-07-10 12:08:00,
2013-07-10 08:13:00,80.1,73.8,30.13,SW,220,11.5,15.5,81,0.00, ,,-99.99,VWS V12.07,2013-07-10 12:13:00,
2013-07-10 08:18:00,80.0,73.3,30.13,SW,216,14.7,14.7,80,0.00, ,,-99.99,VWS V12.07,2013-07-10 12:18:00,
2013-07-10 08:23:00,79.9,73.3,30.13,WSW,239,12.2,15.5,80,0.00, ,,-99.99,VWS V12.07,2013-07-10 12:23:00,
2013-07-10 08:28:00,80.0,73.6,30.13,SSW,209,11.2,15.5,81,0.00, ,,-99.99,VWS V12.07,2013-07-10 12:28:00,
2013-07-10 08:33:00,80.4,73.7,30.13,SW,232,11.9,15.5,80,0.00, ,,-99.99,VWS V12.07,2013-07-10 12:33:00,
2013-07-10 08:38:00,80.5,74.2,30.13,SW,225,10.6,14.9,81,0.00, ,,-99.99,VWS V12.07,2013-07-10 12:38:00,
2013-07-10 08:43:00,80.3,73.8,30.14,SW,222,14.2,16.9,81,0.00, ,,-99.99,VWS V12.07,2013-07-10 12:43:00,
2013-07-10 08:48:00,80.3,73.4,30.13,SSW,213,14.5,16.9,80,0.00, ,,-99.99,VWS V12.07,2013-07-10 12:48:00,
2013-07-10 08:53:00,80.2,73.7,30.13,SSW,211,12.4,16.9,81,0.00, ,,-99.99,VWS V12.07,2013-07-10 12:53:00,
2013-07-10 08:58:00,80.4,74.1,30.13,SW,233,13.2,17.6,81,0.00, ,,-99.99,VWS V12.07,2013-07-10 12:58:00,
2013-07-10 09:03:00,80.4,73.3,30.13,SW,220,10.7,17.6,79,0.00, ,,-99.99,VWS V12.07,2013-07-10 13:03:00,
2013-07-10 09:08:00,80.3,73.6,30.13,SW,219,14.8,17.6,80,0.00, ,,-99.99,VWS V12.07,2013-07-10 13:08:00,
2013-07-10 09:13:00,80.4,74.0,30.13,SSW,205,13.8,19.1,81,0.00, ,,-99.99,VWS V12.07,2013-07-10 13:13:00,
2013-07-10 09:18:00,80.5,73.8,30.13,SW,228,16.3,17.0,80,0.00, ,,-99.99,VWS V12.07,2013-07-10 13:18:00,
2013-07-10 09:23:00,80.5,73.9,30.13,SW,228,16.8,18.7,80,0.00, ,,-99.99,VWS V12.07,2013-07-10 13:23:00,
2013-07-10 09:28:00,80.1,73.1,30.13,SW,225,15.7,19.0,79,0.00, ,,-99.99,VWS V12.07,2013-07-10 13:28:00,
2013-07-10 09:33:00,80.3,73.3,30.13,SSW,198,14.9,19.0,79,0.00, ,,-99.99,VWS V12.07,2013-07-10 13:33:00,
2013-07-10 09:39:00,80.5,73.7,30.13,SW,218,14.8,19.1,80,0.00, ,,-99.99,VWS V12.07,2013-07-10 13:39:00,
2013-07-10 09:44:00,80.5,73.7,30.13,SW,223,12.1,19.1,80,0.00, ,,-99.99,VWS V12.07,2013-07-10 13:44:00,
2013-07-10 09:49:00,80.6,74.1,30.13,SSW,192,13.1,19.1,81,0.00, ,,-99.99,VWS V12.07,2013-07-10 13:49:00,
2013-07-10 09:54:00,80.3,73.3,30.13,SW,225,14.7,19.1,79,0.00, ,,-99.99,VWS V12.07,2013-07-10 13:54:00,
2013-07-10 09:59:00,80.4,73.4,30.13,WSW,237,15.0,19.4,79,0.00, ,,-99.99,VWS V12.07,2013-07-10 13:59:00,
2013-07-10 10:04:00,80.4,73.1,30.13,WSW,246,15.9,19.4,78,0.00, ,,-99.99,VWS V12.07,2013-07-10 14:04:00,
2013-07-10 10:09:00,80.7,73.7,30.13,SSW,212,14.8,19.4,79,0.00, ,,-99.99,VWS V12.07,2013-07-10 14:09:00,
2013-07-10 10:14:00,80.4,72.6,30.13,SW,229,15.5,19.4,77,0.00, ,,-99.99,VWS V12.07,2013-07-10 14:14:00,
2013-07-10 10:19:00,80.7,72.9,30.13,SSW,209,14.5,18.7,77,0.00, ,,-99.99,VWS V12.07,2013-07-10 14:19:00,
2013-07-10 10:24:00,80.6,73.8,30.13,SW,216,13.5,18.7,80,0.00, ,,-99.99,VWS V12.07,2013-07-10 14:24:00,
2013-07-10 10:29:00,80.5,73.1,30.13,SW,225,17.3,19.5,78,0.00, ,,-99.99,VWS V12.07,2013-07-10 14:29:00,
2013-07-10 10:34:00,80.4,73.4,30.13,SW,229,17.2,19.5,79,0.00, ,,-99.99,VWS V12.07,2013-07-10 14:34:00,
2013-07-10 10:39:00,80.3,73.1,30.13,SW,228,17.3,19.3,79,0.00, ,,-99.99,VWS V12.07,2013-07-10 14:39:00,
2013-07-10 10:44:00,80.8,73.3,30.13,SW,229,15.0,20.4,78,0.00, ,,-99.99,VWS V12.07,2013-07-10 14:44:00,
2013-07-10 10:49:00,80.5,72.9,30.14,SW,225,17.7,21.3,78,0.00, ,,-99.99,VWS V12.07,2013-07-10 14:49:00,
2013-07-10 10:54:00,80.4,73.6,30.13,SW,219,15.9,21.3,80,0.00, ,,-99.99,VWS V12.07,2013-07-10 14:54:00,
2013-07-10 10:59:00,81.0,73.7,30.14,SW,222,17.5,21.5,78,0.00, ,,-99.99,VWS V12.07,2013-07-10 14:59:00,
2013-07-10 11:04:00,80.8,74.2,30.14,SW,226,17.3,21.5,80,0.00, ,,-99.99,VWS V12.07,2013-07-10 15:04:00,
2013-07-10 11:09:00,80.9,73.7,30.14,SSW,198,18.0,21.5,79,0.00, ,,-99.99,VWS V12.07,2013-07-10 15:09:00,
2013-07-10 11:14:00,80.6,73.0,30.13,SW,232,18.0,22.0,78,0.00, ,,-99.99,VWS V12.07,2013-07-10 15:14:00,
2013-07-10 11:19:00,80.5,73.3,30.14,WSW,249,11.9,22.1,79,0.00, ,,-99.99,VWS V12.07,2013-07-10 15:19:00,
2013-07-10 11:25:00,80.4,72.6,30.14,SW,222,18.0,22.1,77,0.00, ,,-99.99,VWS V12.07,2013-07-10 15:25:00,
2013-07-10 11:28:00,80.8,72.7,30.13,WSW,239,17.5,22.1,76,0.00, ,,-99.99,VWS V12.07,2013-07-10 15:28:00,
2013-07-10 11:33:00,80.9,72.9,30.14,SW,226,16.7,22.1,77,0.00, ,,-99.99,VWS V12.07,2013-07-10 15:33:00,
2013-07-10 11:38:00,81.2,73.3,30.14,SW,223,16.8,20.1,77,0.00, ,,-99.99,VWS V12.07,2013-07-10 15:38:00,
2013-07-10 11:43:00,80.3,71.7,30.13,SW,222,16.2,21.5,75,0.00, ,,-99.99,VWS V12.07,2013-07-10 15:43:00,
2013-07-10 11:48:00,80.8,72.7,30.13,SW,223,12.8,21.5,76,0.00, ,,-99.99,VWS V12.07,2013-07-10 15:48:00,
2013-07-10 11:53:00,81.3,72.7,30.13,SW,229,18.2,21.5,75,0.00, ,,-99.99,VWS V12.07,2013-07-10 15:53:00,
2013-07-10 11:58:00,81.0,72.9,30.13,SW,223,15.1,19.0,76,0.00, ,,-99.99,VWS V12.07,2013-07-10 15:58:00,
2013-07-10 12:03:00,80.9,72.2,30.13,SSW,202,15.2,21.6,75,0.00, ,,-99.99,VWS V12.07,2013-07-10 16:03:00,
2013-07-10 12:08:00,80.7,72.0,30.13,SW,220,15.4,21.6,75,0.00, ,,-99.99,VWS V12.07,2013-07-10 16:08:00,
2013-07-10 12:13:00,80.5,71.8,30.12,SW,222,15.9,21.6,75,0.00, ,,-99.99,VWS V12.07,2013-07-10 16:13:00,
2013-07-10 12:18:00,81.3,73.2,30.12,SW,232,18.8,19.6,77,0.00, ,,-99.99,VWS V12.07,2013-07-10 16:18:00,
2013-07-10 12:24:00,81.1,72.8,30.12,SSW,213,15.5,19.9,76,0.00, ,,-99.99,VWS V12.07,2013-07-10 16:24:00,
2013-07-10 12:29:00,80.7,72.6,30.12,SW,226,16.1,20.9,76,0.00, ,,-99.99,VWS V12.07,2013-07-10 16:29:00,
2013-07-10 12:34:00,80.9,73.2,30.12,SSW,212,14.0,20.9,77,0.00, ,,-99.99,VWS V12.07,2013-07-10 16:34:00,
2013-07-10 12:39:00,81.2,72.9,30.12,WSW,239,17.3,20.6,76,0.00, ,,-99.99,VWS V12.07,2013-07-10 16:39:00,
2013-07-10 12:44:00,80.7,73.3,30.12,SW,220,18.0,20.8,78,0.00, ,,-99.99,VWS V12.07,2013-07-10 16:44:00,
2013-07-10 12:49:00,81.1,73.3,30.12,SW,218,14.6,20.8,77,0.00, ,,-99.99,VWS V12.07,2013-07-10 16:49:00,
2013-07-10 12:54:00,81.0,73.9,30.12,SW,218,13.1,20.8,79,0.00, ,,-99.99,VWS V12.07,2013-07-10 16:54:00,
2013-07-10 12:59:00,81.1,73.1,30.11,SW,215,12.9,18.2,77,0.00, ,,-99.99,VWS V12.07,2013-07-10 16:59:00,
2013-07-10 13:04:00,80.7,72.3,30.11,SW,223,18.5,20.1,76,0.00, ,,-99.99,VWS V12.07,2013-07-10 17:04:00,
2013-07-10 13:09:00,80.6,72.3,30.11,SW,223,15.4,20.1,76,0.00, ,,-99.99,VWS V12.07,2013-07-10 17:09:00,
2013-07-10 13:14:00,80.9,72.2,30.11,WSW,237,15.0,20.1,75,0.00, ,,-99.99,VWS V12.07,2013-07-10 17:14:00,
2013-07-10 13:19:00,80.9,72.4,30.11,SSW,212,13.2,20.4,75,0.00, ,,-99.99,VWS V12.07,2013-07-10 17:19:00,
2013-07-10 13:24:00,81.2,72.7,30.11,SW,219,14.9,20.4,76,0.00, ,,-99.99,VWS V12.07,2013-07-10 17:24:00,
2013-07-10 13:29:00,81.0,72.3,30.11,SW,220,16.9,20.4,75,0.00, ,,-99.99,VWS V12.07,2013-07-10 17:29:00,
2013-07-10 13:34:00,81.4,72.2,30.11,SW,233,15.6,21.1,74,0.00, ,,-99.99,VWS V12.07,2013-07-10 17:34:00,
2013-07-10 13:39:00,81.1,72.5,30.11,SSW,213,14.0,19.6,75,0.00, ,,-99.99,VWS V12.07,2013-07-10 17:39:00,
2013-07-10 13:44:00,81.2,72.2,30.11,SW,218,16.5,21.1,74,0.00, ,,-99.99,VWS V12.07,2013-07-10 17:44:00,
2013-07-10 13:49:00,81.2,71.8,30.11,SW,216,16.1,21.4,73,0.00, ,,-99.99,VWS V12.07,2013-07-10 17:49:00,
2013-07-10 13:54:00,81.5,72.5,30.10,SSW,213,15.8,21.4,74,0.00, ,,-99.99,VWS V12.07,2013-07-10 17:54:00,
2013-07-10 13:59:00,81.1,72.0,30.10,SW,218,16.7,19.4,74,0.00, ,,-99.99,VWS V12.07,2013-07-10 17:59:00,
2013-07-10 14:04:00,81.1,72.1,30.10,SW,218,18.3,20.8,74,0.00, ,,-99.99,VWS V12.07,2013-07-10 18:04:00,
2013-07-10 14:09:00,81.3,72.7,30.10,SW,216,13.9,20.8,75,0.00, ,,-99.99,VWS V12.07,2013-07-10 18:09:00,
2013-07-10 14:14:00,81.8,72.9,30.10,SSW,209,15.0,20.8,75,0.00, ,,-99.99,VWS V12.07,2013-07-10 18:14:00,
2013-07-10 14:19:00,81.9,72.8,30.10,SW,219,15.5,20.8,74,0.00, ,,-99.99,VWS V12.07,2013-07-10 18:19:00,
2013-07-10 14:24:00,81.4,72.2,30.10,SW,219,15.6,20.8,74,0.00, ,,-99.99,VWS V12.07,2013-07-10 18:24:00,
2013-07-10 14:29:00,81.6,73.5,30.10,SSW,211,17.4,20.8,76,0.00, ,,-99.99,VWS V12.07,2013-07-10 18:29:00,
2013-07-10 14:34:00,81.9,73.7,30.09,SSW,211,15.7,20.8,76,0.00, ,,-99.99,VWS V12.07,2013-07-10 18:34:00,
2013-07-10 14:39:00,81.8,73.4,30.09,SSW,206,13.1,20.7,76,0.00, ,,-99.99,VWS V12.07,2013-07-10 18:39:00,
2013-07-10 14:44:00,82.1,74.4,30.09,SW,218,19.3,20.7,78,0.00, ,,-99.99,VWS V12.07,2013-07-10 18:44:00,
2013-07-10 14:49:00,82.2,74.1,30.09,SSW,204,15.0,21.6,76,0.00, ,,-99.99,VWS V12.07,2013-07-10 18:49:00,
2013-07-10 14:54:00,82.2,74.5,30.09,SW,223,20.1,21.6,78,0.00, ,,-99.99,VWS V12.07,2013-07-10 18:54:00,
2013-07-10 14:59:00,81.8,73.8,30.09,SSW,201,11.8,20.8,77,0.00, ,,-99.99,VWS V12.07,2013-07-10 18:59:00,
2013-07-10 15:04:00,81.6,73.3,30.09,SSW,208,14.9,20.8,76,0.00, ,,-99.99,VWS V12.07,2013-07-10 19:04:00,
2013-07-10 15:09:00,81.2,73.5,30.08,SSW,202,17.2,21.1,77,0.00, ,,-99.99,VWS V12.07,2013-07-10 19:09:00,
2013-07-10 15:14:00,81.5,74.4,30.08,SW,216,14.8,21.1,79,0.00, ,,-99.99,VWS V12.07,2013-07-10 19:14:00,
2013-07-10 15:19:00,82.4,74.2,30.08,SSW,194,13.7,19.3,76,0.00, ,,-99.99,VWS V12.07,2013-07-10 19:19:00,
2013-07-10 15:24:00,82.2,74.5,30.08,SW,233,19.1,20.4,78,0.00, ,,-99.99,VWS V12.07,2013-07-10 19:24:00,
2013-07-10 15:29:00,82.0,74.7,30.07,SW,222,18.4,22.2,79,0.00, ,,-99.99,VWS V12.07,2013-07-10 19:29:00,
2013-07-10 15:34:00,82.1,74.2,30.07,SW,222,18.4,24.2,77,0.00, ,,-99.99,VWS V12.07,2013-07-10 19:34:00,
2013-07-10 15:39:00,82.5,74.9,30.07,SSW,202,15.0,22.6,78,0.00, ,,-99.99,VWS V12.07,2013-07-10 19:39:00,
2013-07-10 15:44:00,81.9,74.3,30.07,SSW,197,16.6,23.1,78,0.00, ,,-99.99,VWS V12.07,2013-07-10 19:44:00,
2013-07-10 15:49:00,82.4,74.1,30.07,South,177,17.3,23.1,76,0.00, ,,-99.99,VWS V12.07,2013-07-10 19:49:00,
2013-07-10 15:54:00,82.9,73.8,30.07,SSE,159,13.7,23.1,74,0.00, ,,-99.99,VWS V12.07,2013-07-10 19:54:00,
2013-07-10 16:00:00,82.1,73.3,30.07,SSW,192,17.6,23.5,75,0.00, ,,-99.99,VWS V12.07,2013-07-10 20:00:00,
2013-07-10 16:05:00,82.4,74.0,30.07,SW,219,17.6,23.5,76,0.00, ,,-99.99,VWS V12.07,2013-07-10 20:05:00,
2013-07-10 16:10:00,83.3,74.5,30.07,SSW,197,14.0,23.5,75,0.00, ,,-99.99,VWS V12.07,2013-07-10 20:10:00,
2013-07-10 16:15:00,82.4,74.2,30.06,South,178,7.9,13.5,76,0.00, ,,-99.99,VWS V12.07,2013-07-10 20:15:00,
2013-07-10 16:20:00,82.7,73.7,30.06,SW,220,19.9,22.5,74,0.00, ,,-99.99,VWS V12.07,2013-07-10 20:20:00,
2013-07-10 16:25:00,82.8,74.4,30.06,SSW,192,15.8,22.5,76,0.00, ,,-99.99,VWS V12.07,2013-07-10 20:25:00,
2013-07-10 16:30:00,82.5,75.1,30.05,SW,220,7.8,22.5,78,0.00, ,,-99.99,VWS V12.07,2013-07-10 20:30:00,
2013-07-10 16:35:00,82.0,74.5,30.05,SSE,152,15.2,16.0,78,0.00, ,,-99.99,VWS V12.07,2013-07-10 20:35:00,
2013-07-10 16:40:00,82.4,75.4,30.06,SSW,209,14.6,21.9,79,0.00, ,,-99.99,VWS V12.07,2013-07-10 20:40:00,
2013-07-10 16:45:00,82.4,74.9,30.06,SSE,150,16.6,21.9,78,0.00, ,,-99.99,VWS V12.07,2013-07-10 20:45:00,
2013-07-10 16:50:00,82.4,74.9,30.05,SSW,202,17.5,21.9,78,0.00, ,,-99.99,VWS V12.07,2013-07-10 20:50:00,
2013-07-10 16:55:00,82.6,74.1,30.05,South,187,8.5,8.5,76,0.00, ,,-99.99,VWS V12.07,2013-07-10 20:55:00,
2013-07-10 17:00:00,82.7,74.1,30.05,South,190,11.2,21.9,75,0.00, ,,-99.99,VWS V12.07,2013-07-10 21:00:00,
2013-07-10 17:05:00,82.7,74.4,30.05,South,182,14.5,23.7,76,0.00, ,,-99.99,VWS V12.07,2013-07-10 21:05:00,
2013-07-10 17:10:00,82.5,74.5,30.05,SSW,194,19.1,23.7,77,0.00, ,,-99.99,VWS V12.07,2013-07-10 21:10:00,
2013-07-10 17:15:00,82.2,75.0,30.05,South,177,14.5,15.0,79,0.00, ,,-99.99,VWS V12.07,2013-07-10 21:15:00,
2013-07-10 17:20:00,81.5,73.6,30.04,SW,223,22.1,25.2,77,0.00, ,,-99.99,VWS V12.07,2013-07-10 21:20:00,
2013-07-10 17:25:00,82.4,74.6,30.05,SSW,206,15.8,25.2,77,0.00, ,,-99.99,VWS V12.07,2013-07-10 21:25:00,
2013-07-10 17:30:00,83.0,74.9,30.04,SW,222,13.1,25.2,77,0.00, ,,-99.99,VWS V12.07,2013-07-10 21:30:00,
2013-07-10 17:35:00,82.4,74.9,30.04,SSW,206,16.4,16.4,78,0.00, ,,-99.99,VWS V12.07,2013-07-10 21:35:00,
2013-07-10 17:40:00,82.2,75.3,30.04,SSW,204,18.3,24.9,80,0.00, ,,-99.99,VWS V12.07,2013-07-10 21:40:00,
2013-07-10 17:45:00,81.9,75.2,30.04,SSW,211,18.5,24.9,80,0.00, ,,-99.99,VWS V12.07,2013-07-10 21:45:00,
2013-07-10 17:50:00,81.8,74.8,30.04,SSW,205,19.4,24.9,79,0.00, ,,-99.99,VWS V12.07,2013-07-10 21:50:00,
2013-07-10 17:55:00,81.2,73.7,30.04,SW,223,21.4,22.2,78,0.00, ,,-99.99,VWS V12.07,2013-07-10 21:55:00,
2013-07-10 18:00:00,81.4,73.8,30.04,SW,225,18.8,23.8,78,0.00, ,,-99.99,VWS V12.07,2013-07-10 22:00:00,
2013-07-10 18:05:00,81.4,73.3,30.04,SW,220,21.6,23.9,76,0.00, ,,-99.99,VWS V12.07,2013-07-10 22:05:00,
2013-07-10 18:10:00,81.4,73.9,30.04,SW,223,20.7,24.2,78,0.00, ,,-99.99,VWS V12.07,2013-07-10 22:10:00,
2013-07-10 18:15:00,81.3,74.0,30.04,SW,220,22.7,22.7,78,0.00, ,,-99.99,VWS V12.07,2013-07-10 22:15:00,
2013-07-10 18:20:00,81.3,74.3,30.03,SW,218,19.2,25.0,79,0.00, ,,-99.99,VWS V12.07,2013-07-10 22:20:00,
2013-07-10 18:25:00,81.4,74.0,30.03,WSW,242,18.8,25.0,78,0.00, ,,-99.99,VWS V12.07,2013-07-10 22:25:00,
2013-07-10 18:30:00,81.2,73.7,30.03,SW,226,23.0,25.0,78,0.00, ,,-99.99,VWS V12.07,2013-07-10 22:30:00,
2013-07-10 18:35:00,81.0,74.2,30.03,SW,222,19.1,19.1,80,0.00, ,,-99.99,VWS V12.07,2013-07-10 22:35:00,
2013-07-10 18:40:00,81.4,74.3,30.03,SW,219,16.0,24.0,79,0.00, ,,-99.99,VWS V12.07,2013-07-10 22:40:00,
2013-07-10 18:45:00,81.5,74.5,30.04,South,175,18.2,24.0,79,0.00, ,,-99.99,VWS V12.07,2013-07-10 22:45:00,
2013-07-10 18:50:00,81.5,74.3,30.04,South,174,22.0,25.5,79,0.00, ,,-99.99,VWS V12.07,2013-07-10 22:50:00,
2013-07-10 18:55:00,81.5,74.1,30.03,SW,216,18.1,19.0,78,0.00, ,,-99.99,VWS V12.07,2013-07-10 22:55:00,
2013-07-10 19:00:00,81.4,74.1,30.04,SSW,209,17.3,22.7,79,0.00, ,,-99.99,VWS V12.07,2013-07-10 23:00:00,
2013-07-10 19:05:00,81.3,74.3,30.04,SW,235,20.5,27.9,79,0.00, ,,-99.99,VWS V12.07,2013-07-10 23:05:00,
2013-07-10 19:10:00,80.9,73.9,30.04,SSW,206,19.3,28.1,79,0.00, ,,-99.99,VWS V12.07,2013-07-10 23:10:00,
2013-07-10 19:15:00,80.6,73.3,30.03,SW,223,21.1,23.6,79,0.00, ,,-99.99,VWS V12.07,2013-07-10 23:15:00,
2013-07-10 19:20:00,80.9,73.8,30.03,SW,219,23.5,29.5,79,0.00, ,,-99.99,VWS V12.07,2013-07-10 23:20:00,
2013-07-10 19:25:00,81.2,74.4,30.04,WSW,239,21.6,29.5,80,0.00, ,,-99.99,VWS V12.07,2013-07-10 23:25:00,
2013-07-10 19:30:00,80.7,72.9,30.04,SW,220,21.8,29.5,77,0.00, ,,-99.99,VWS V12.07,2013-07-10 23:30:00,
2013-07-10 19:35:00,80.9,74.0,30.04,SSW,211,17.6,19.3,80,0.00, ,,-99.99,VWS V12.07,2013-07-10 23:35:00,
2013-07-10 19:40:00,81.3,74.5,30.04,SW,215,20.9,25.3,80,0.00, ,,-99.99,VWS V12.07,2013-07-10 23:40:00,
2013-07-10 19:45:00,81.1,74.1,30.04,SW,225,16.5,25.3,79,0.00, ,,-99.99,VWS V12.07,2013-07-10 23:45:00,
2013-07-10 19:50:00,80.7,74.2,30.04,SSW,209,18.0,25.9,81,0.00, ,,-99.99,VWS V12.07,2013-07-10 23:50:00,
2013-07-10 19:55:00,80.5,74.7,30.04,SW,222,19.7,21.0,82,0.00, ,,-99.99,VWS V12.07,2013-07-10 23:55:00,
2013-07-10 20:00:00,80.5,75.2,30.04,South,184,13.2,21.7,84,0.00, ,,-99.99,VWS V12.07,2013-07-11 00:00:00,
2013-07-10 20:05:00,81.0,76.2,30.04,SSW,211,17.8,22.6,85,0.00, ,,-99.99,VWS V12.07,2013-07-11 00:05:00,
2013-07-10 20:10:00,80.1,74.6,30.04,SW,228,22.9,25.5,83,0.00, ,,-99.99,VWS V12.07,2013-07-11 00:10:00,
2013-07-10 20:15:00,80.4,74.3,30.04,SW,222,19.2,19.2,82,0.00, ,,-99.99,VWS V12.07,2013-07-11 00:15:00,
2013-07-10 20:20:00,80.4,74.0,30.04,SSW,199,16.1,22.9,81,0.00, ,,-99.99,VWS V12.07,2013-07-11 00:20:00,
2013-07-10 20:25:00,80.4,74.5,30.04,SSW,213,17.1,25.9,82,0.00, ,,-99.99,VWS V12.07,2013-07-11 00:25:00,
2013-07-10 20:30:00,80.2,74.6,30.04,SSW,213,18.4,25.9,83,0.00, ,,-99.99,VWS V12.07,2013-07-11 00:30:00,
2013-07-10 20:36:00,80.1,75.5,30.03,SSE,161,13.1,25.6,86,0.00, ,,-99.99,VWS V12.07,2013-07-11 00:36:00,
2013-07-10 20:41:00,80.0,75.5,30.04,SW,215,14.4,25.6,86,0.00, ,,-99.99,VWS V12.07,2013-07-11 00:41:00,
2013-07-10 20:46:00,79.3,74.4,30.05,SSW,211,16.5,25.6,85,0.00, ,,-99.99,VWS V12.07,2013-07-11 00:46:00,
2013-07-10 20:51:00,79.7,74.4,30.05,SSW,209,15.7,25.6,84,0.00, ,,-99.99,VWS V12.07,2013-07-11 00:51:00,
2013-07-10 20:56:00,79.7,74.1,30.05,SW,225,19.8,19.8,83,0.00, ,,-99.99,VWS V12.07,2013-07-11 00:56:00,
2013-07-10 21:01:00,79.4,73.7,30.05,SW,216,16.7,19.8,83,0.00, ,,-99.99,VWS V12.07,2013-07-11 01:01:00,
2013-07-10 21:06:00,79.4,73.3,30.05,SSW,199,16.4,20.6,82,0.00, ,,-99.99,VWS V12.07,2013-07-11 01:06:00,
2013-07-10 21:11:00,80.0,74.0,30.04,SSW,204,14.4,21.2,82,0.00, ,,-99.99,VWS V12.07,2013-07-11 01:11:00,
2013-07-10 21:16:00,79.3,73.6,30.05,SSW,209,14.2,16.1,83,0.00, ,,-99.99,VWS V12.07,2013-07-11 01:16:00,
2013-07-10 21:21:00,80.2,74.7,30.05,SSW,209,14.7,17.6,83,0.00, ,,-99.99,VWS V12.07,2013-07-11 01:21:00,
2013-07-10 21:26:00,79.8,74.3,30.05,SSW,206,14.4,20.0,83,0.00, ,,-99.99,VWS V12.07,2013-07-11 01:26:00,
2013-07-10 21:31:00,79.9,74.8,30.05,SSW,204,11.0,20.2,84,0.00, ,,-99.99,VWS V12.07,2013-07-11 01:31:00,
2013-07-10 21:36:00,80.2,74.8,30.05,SSW,213,14.1,19.0,84,0.00, ,,-99.99,VWS V12.07,2013-07-11 01:36:00,
2013-07-10 21:41:00,80.3,75.2,30.05,SSW,213,13.2,19.0,85,0.00, ,,-99.99,VWS V12.07,2013-07-11 01:41:00,
2013-07-10 21:46:00,79.9,74.6,30.05,SW,233,19.0,21.4,84,0.00, ,,-99.99,VWS V12.07,2013-07-11 01:46:00,
2013-07-10 21:51:00,80.0,74.7,30.05,SW,220,16.5,21.4,84,0.00, ,,-99.99,VWS V12.07,2013-07-11 01:51:00,
2013-07-10 21:56:00,79.0,74.9,30.05,South,184,10.9,16.9,87,0.00, ,,-99.99,VWS V12.07,2013-07-11 01:56:00,
2013-07-10 22:01:00,79.5,76.1,30.05,SW,215,10.9,16.9,89,0.01, ,,-99.99,VWS V12.07,2013-07-11 02:01:00,
2013-07-10 22:05:00,79.0,75.9,30.05,SSW,195,7.8,16.9,90,0.01, ,,-99.99,VWS V12.07,2013-07-11 02:05:00,
2013-07-10 22:10:00,79.4,76.0,30.05,South,190,14.8,20.2,89,0.01, ,,-99.99,VWS V12.07,2013-07-11 02:10:00,
2013-07-10 22:15:00,79.7,75.2,30.05,SW,215,16.5,18.3,86,0.01, ,,-99.99,VWS V12.07,2013-07-11 02:15:00,
2013-07-10 22:20:00,79.1,73.0,30.05,SW,230,20.5,23.2,82,0.01, ,,-99.99,VWS V12.07,2013-07-11 02:20:00,
2013-07-10 22:26:00,79.8,74.1,30.05,SSW,198,16.4,24.6,83,0.01, ,,-99.99,VWS V12.07,2013-07-11 02:26:00,
2013-07-10 22:31:00,79.8,73.9,30.05,SSW,205,20.0,24.6,82,0.01, ,,-99.99,VWS V12.07,2013-07-11 02:31:00,
2013-07-10 22:36:00,79.9,74.6,30.06,SSW,211,14.8,19.1,84,0.01, ,,-99.99,VWS V12.07,2013-07-11 02:36:00,
2013-07-10 22:41:00,79.7,74.1,30.06,SW,216,15.6,24.7,83,0.01, ,,-99.99,VWS V12.07,2013-07-11 02:41:00,
2013-07-10 22:46:00,79.4,74.1,30.06,SSW,199,14.7,24.7,84,0.01, ,,-99.99,VWS V12.07,2013-07-11 02:46:00,
2013-07-10 22:51:00,79.7,74.4,30.06,South,184,12.9,24.7,84,0.01, ,,-99.99,VWS V12.07,2013-07-11 02:51:00,
2013-07-10 22:56:00,79.7,74.3,30.06,WSW,240,12.8,19.9,84,0.01, ,,-99.99,VWS V12.07,2013-07-11 02:56:00,
2013-07-10 23:01:00,79.2,73.8,30.06,SW,218,21.9,22.4,84,0.01, ,,-99.99,VWS V12.07,2013-07-11 03:01:00,
2013-07-10 23:06:00,79.7,74.5,30.06,SSW,209,14.2,24.2,84,0.01, ,,-99.99,VWS V12.07,2013-07-11 03:06:00,
2013-07-10 23:11:00,79.8,74.7,30.06,SSW,212,18.2,24.2,84,0.01, ,,-99.99,VWS V12.07,2013-07-11 03:11:00,
2013-07-10 23:16:00,79.5,74.3,30.06,SSW,208,22.7,25.2,84,0.00, ,,-99.99,VWS V12.07,2013-07-11 03:16:00,
2013-07-10 23:21:00,79.4,74.6,30.06,South,175,13.5,25.7,85,0.00, ,,-99.99,VWS V12.07,2013-07-11 03:21:00,
2013-07-10 23:26:00,79.2,74.8,30.05,SSW,195,10.4,25.7,86,0.00, ,,-99.99,VWS V12.07,2013-07-11 03:26:00,
2013-07-10 23:31:00,79.1,74.2,30.05,SSW,199,17.2,25.7,85,0.00, ,,-99.99,VWS V12.07,2013-07-11 03:31:00,
2013-07-10 23:36:00,79.5,74.0,30.05,SSW,205,16.1,24.6,83,0.00, ,,-99.99,VWS V12.07,2013-07-11 03:36:00,
2013-07-10 23:41:00,79.5,74.0,30.05,SSW,209,16.0,24.6,83,0.00, ,,-99.99,VWS V12.07,2013-07-11 03:41:00,
2013-07-10 23:46:00,79.5,74.1,30.05,South,178,13.0,24.6,84,0.00, ,,-99.99,VWS V12.07,2013-07-11 03:46:00,
2013-07-10 23:51:00,79.2,73.7,30.04,SSW,202,12.4,24.6,83,0.00, ,,-99.99,VWS V12.07,2013-07-11 03:51:00,
2013-07-10 23:56:00,79.9,75.0,30.05,SSW,213,14.1,15.9,85,0.00, ,,-99.99,VWS V12.07,2013-07-11 03:56:00,